Time,TemperatureF,DewpointF,PressureIn,WindDirection,WindDirectionDegrees,WindSpeedMPH,WindSpeedGustMPH,Humidity,HourlyPrecipIn,Conditions,Clouds,dailyrainin,SoftwareType,DateUTC
2013-07-02 00:00:00,74.4,72.2,29.92,South,179,0.0,0.0,93,0.00,,,0.06,Wunderground v.1.15,2013-07-02 04:00:00,
2013-07-02 00:05:00,74.4,72.2,29.93,South,180,0.0,0.0,93,0.00,,,0.00,Wunderground v.1.15,2013-07-02 04:05:00,
2013-07-02 00:10:00,74.5,72.3,29.93,South,183,0.0,0.0,93,0.00,,,0.00,Wunderground v.1.15,2013-07-02 04:10:00,
2013-07-02 00:15:00,74.6,72.4,29.93,South,177,1.0,1.0,93,0.00,,,0.00,Wunderground v.1.15,2013-07-02 04:15:00,
2013-07-02 00:20:00,74.6,72.1,29.93,South,182,1.0,1.0,92,0.00,,,0.00,Wunderground v.1.15,2013-07-02 04:20:00,
2013-07-02 00:30:00,74.7,72.2,29.94,South,183,0.0,0.0,92,0.00,,,0.00,Wunderground v.1.15,2013-07-02 04:30:00,
2013-07-02 00:35:00,74.7,72.2,29.94,South,183,0.0,0.0,92,0.00,,,0.00,Wunderground v.1.15,2013-07-02 04:35:00,
2013-07-02 00:45:00,74.6,72.4,29.94,SSE,162,0.0,0.0,93,0.00,,,0.00,Wunderground v.1.15,2013-07-02 04:45:00,
2013-07-02 00:55:00,74.5,72.3,29.94,SSE,162,0.0,0.0,93,0.00,,,0.00,Wunderground v.1.15,2013-07-02 04:55:00,
2013-07-02 01:00:00,74.4,72.2,29.94,SSE,162,0.0,0.0,93,0.00,,,0.00,Wunderground v.1.15,2013-07-02 05:00:00,
2013-07-02 01:05:00,74.3,72.1,29.94,SSE,160,0.0,0.0,93,0.00,,,0.00,Wunderground v.1.15,2013-07-02 05:05:00,
2013-07-02 01:15:00,74.3,72.1,29.94,SSE,156,0.0,0.0,93,0.00,,,0.00,Wunderground v.1.15,2013-07-02 05:15:00,
2013-07-02 01:20:00,74.3,72.1,29.94,SSW,195,0.0,0.0,93,0.00,,,0.00,Wunderground v.1.15,2013-07-02 05:20:00,
2013-07-02 01:30:00,74.3,72.1,29.94,SSW,212,0.0,5.0,93,0.00,,,0.00,Wunderground v.1.15,2013-07-02 05:30:00,
2013-07-02 01:35:00,74.3,72.1,29.94,SSW,197,1.0,5.0,93,0.00,,,0.00,Wunderground v.1.15,2013-07-02 05:35:00,
2013-07-02 01:45:00,74.2,72.0,29.94,South,187,1.0,1.0,93,0.00,,,0.00,Wunderground v.1.15,2013-07-02 05:45:00,
2013-07-02 01:50:00,74.1,71.9,29.94,SSW,201,0.0,1.0,93,0.00,,,0.00,Wunderground v.1.15,2013-07-02 05:50:00,
2013-07-02 02:00:00,74.0,71.8,29.94,SSE,163,0.0,1.0,93,0.00,,,0.00,Wunderground v.1.15,2013-07-02 06:00:00,
2013-07-02 02:05:00,74.0,71.8,29.94,SSE,164,0.0,1.0,93,0.00,,,0.00,Wunderground v.1.15,2013-07-02 06:05:00,
2013-07-02 02:15:00,74.0,71.8,29.94,SSE,165,1.0,2.0,93,0.00,,,0.00,Wunderground v.1.15,2013-07-02 06:15:00,
2013-07-02 02:20:00,74.0,71.8,29.94,South,173,1.0,1.0,93,0.00,,,0.00,Wunderground v.1.15,2013-07-02 06:20:00,
2013-07-02 02:25:00,74.0,71.8,29.94,West,272,0.0,1.0,93,0.00,,,0.00,Wunderground v.1.15,2013-07-02 06:25:00,
2013-07-02 02:35:00,73.9,71.7,29.94,SSE,163,0.0,1.0,93,0.00,,,0.00,Wunderground v.1.15,2013-07-02 06:35:00,
2013-07-02 02:45:00,73.9,71.7,29.94,South,174,1.0,1.0,93,0.00,,,0.00,Wunderground v.1.15,2013-07-02 06:45:00,
2013-07-02 02:50:00,73.9,71.7,29.94,SSE,152,0.0,0.0,93,0.00,,,0.00,Wunderground v.1.15,2013-07-02 06:50:00,
2013-07-02 03:00:00,73.8,71.6,29.94,SSW,203,0.0,1.0,93,0.00,,,0.00,Wunderground v.1.15,2013-07-02 07:00:00,
2013-07-02 03:05:00,73.7,71.5,29.94,SW,220,0.0,1.0,93,0.00,,,0.00,Wunderground v.1.15,2013-07-02 07:05:00,
2013-07-02 03:15:00,73.7,71.5,29.94,SE,145,1.0,1.0,93,0.00,,,0.00,Wunderground v.1.15,2013-07-02 07:15:00,
2013-07-02 03:25:00,73.5,71.4,29.94,SSW,192,0.0,0.0,93,0.00,,,0.00,Wunderground v.1.15,2013-07-02 07:25:00,
2013-07-02 03:35:00,73.4,71.6,29.94,SSW,192,0.0,0.0,94,0.00,,,0.00,Wunderground v.1.15,2013-07-02 07:35:00,
2013-07-02 03:40:00,73.3,71.5,29.94,SSW,192,0.0,0.0,94,0.00,,,0.00,Wunderground v.1.15,2013-07-02 07:40:00,
2013-07-02 03:50:00,73.2,71.4,29.94,SE,146,0.0,0.0,94,0.00,,,0.00,Wunderground v.1.15,2013-07-02 07:50:00,
2013-07-02 03:55:00,73.1,71.3,29.94,SSE,166,0.0,0.0,94,0.00,,,0.00,Wunderground v.1.15,2013-07-02 07:55:00,
2013-07-02 04:05:00,73.1,71.3,29.95,South,177,0.0,0.0,94,0.00,,,0.00,Wunderground v.1.15,2013-07-02 08:05:00,
2013-07-02 04:14:00,73.0,71.5,29.95,South,173,0.0,0.0,95,0.00,,,0.00,Wunderground v.1.15,2013-07-02 08:14:00,
2013-07-02 04:20:00,73.0,71.5,29.95,South,179,0.0,0.0,95,0.00,,,0.00,Wunderground v.1.15,2013-07-02 08:20:00,
2013-07-02 04:25:00,73.0,71.5,29.95,South,186,0.0,0.0,95,0.00,,,0.00,Wunderground v.1.15,2013-07-02 08:25:00,
2013-07-02 04:35:00,73.0,71.5,29.96,SSE,152,1.0,2.0,95,0.00,,,0.00,Wunderground v.1.15,2013-07-02 08:35:00,
2013-07-02 04:40:00,73.0,71.5,29.96,South,189,0.0,1.0,95,0.00,,,0.00,Wunderground v.1.15,2013-07-02 08:40:00,
2013-07-02 04:50:00,73.0,71.2,29.96,SSE,166,1.0,1.0,94,0.00,,,0.00,Wunderground v.1.15,2013-07-02 08:50:00,
2013-07-02 04:55:00,73.0,71.2,29.96,SSE,166,1.0,1.0,94,0.00,,,0.00,Wunderground v.1.15,2013-07-02 08:55:00,
2013-07-02 05:05:00,73.0,71.2,29.96,SSE,166,0.0,0.0,94,0.00,,,0.00,Wunderground v.1.15,2013-07-02 09:05:00,
2013-07-02 05:15:00,72.9,71.4,29.97,SSE,166,0.0,0.0,95,0.00,,,0.00,Wunderground v.1.15,2013-07-02 09:15:00,
2013-07-02 05:25:00,72.6,71.1,29.97,SSE,166,0.0,0.0,95,0.00,,,0.00,Wunderground v.1.15,2013-07-02 09:25:00,
2013-07-02 05:30:00,72.5,71.0,29.97,South,180,0.0,0.0,95,0.00,,,0.00,Wunderground v.1.15,2013-07-02 09:30:00,
2013-07-02 05:40:00,72.3,71.1,29.97,South,180,0.0,0.0,96,0.00,,,0.00,Wunderground v.1.15,2013-07-02 09:40:00,
2013-07-02 05:45:00,72.3,71.1,29.98,South,180,0.0,0.0,96,0.00,,,0.00,Wunderground v.1.15,2013-07-02 09:45:00,
2013-07-02 05:55:00,72.3,71.1,29.98,South,180,0.0,0.0,96,0.00,,,0.00,Wunderground v.1.15,2013-07-02 09:55:00,
2013-07-02 06:05:00,72.2,71.0,29.99,South,180,0.0,0.0,96,0.00,,,0.00,Wunderground v.1.15,2013-07-02 10:05:00,
2013-07-02 06:15:00,72.2,71.0,29.99,South,172,0.0,0.0,96,0.00,,,0.00,Wunderground v.1.15,2013-07-02 10:15:00,
2013-07-02 06:25:00,72.2,71.0,29.99,South,172,0.0,0.0,96,0.00,,,0.00,Wunderground v.1.15,2013-07-02 10:25:00,
2013-07-02 06:30:00,72.2,71.0,30.00,South,172,0.0,0.0,96,0.00,,,0.00,Wunderground v.1.15,2013-07-02 10:30:00,
2013-07-02 06:40:00,72.3,71.1,30.00,South,171,0.0,0.0,96,0.00,,,0.00,Wunderground v.1.15,2013-07-02 10:40:00,
2013-07-02 06:50:00,72.3,71.1,30.00,South,185,0.0,0.0,96,0.00,,,0.00,Wunderground v.1.15,2013-07-02 10:50:00,
2013-07-02 06:55:00,72.4,71.2,30.00,South,185,0.0,0.0,96,0.00,,,0.00,Wunderground v.1.15,2013-07-02 10:55:00,
2013-07-02 07:05:00,72.5,71.3,30.00,South,180,0.0,0.0,96,0.00,,,0.00,Wunderground v.1.15,2013-07-02 11:05:00,
2013-07-02 07:15:00,72.6,71.4,30.00,South,180,0.0,0.0,96,0.00,,,0.00,Wunderground v.1.15,2013-07-02 11:15:00,
2013-07-02 07:20:00,72.6,71.4,30.00,South,172,0.0,0.0,96,0.00,,,0.00,Wunderground v.1.15,2013-07-02 11:20:00,
2013-07-02 07:30:00,72.8,71.6,30.00,South,174,0.0,3.0,96,0.00,,,0.00,Wunderground v.1.15,2013-07-02 11:30:00,
2013-07-02 07:40:00,73.2,71.7,30.00,South,185,0.0,0.0,95,0.00,,,0.00,Wunderground v.1.15,2013-07-02 11:40:00,
2013-07-02 07:45:00,73.4,71.6,30.00,South,176,0.0,0.0,94,0.00,,,0.00,Wunderground v.1.15,2013-07-02 11:45:00,
2013-07-02 07:55:00,73.8,72.0,30.01,South,175,0.0,0.0,94,0.00,,,0.00,Wunderground v.1.15,2013-07-02 11:55:00,
2013-07-02 08:00:00,74.0,71.8,30.01,South,191,0.0,0.0,93,0.00,,,0.00,Wunderground v.1.15,2013-07-02 12:00:00,
2013-07-02 08:05:00,74.1,71.9,30.01,South,181,0.0,1.0,93,0.00,,,0.00,Wunderground v.1.15,2013-07-02 12:05:00,
2013-07-02 08:15:00,74.3,72.1,30.02,SSW,210,0.0,0.0,93,0.00,,,0.00,Wunderground v.1.15,2013-07-02 12:15:00,
2013-07-02 08:20:00,74.4,72.2,30.02,SSE,165,1.0,1.0,93,0.00,,,0.00,Wunderground v.1.15,2013-07-02 12:20:00,
2013-07-02 08:30:00,74.7,72.2,30.03,South,177,0.0,0.0,92,0.00,,,0.00,Wunderground v.1.15,2013-07-02 12:30:00,
2013-07-02 08:35:00,75.0,72.5,30.02,South,170,0.0,0.0,92,0.00,,,0.00,Wunderground v.1.15,2013-07-02 12:35:00,
2013-07-02 08:45:00,75.3,72.5,30.03,SSE,156,1.0,1.0,91,0.00,,,0.00,Wunderground v.1.15,2013-07-02 12:45:00,
2013-07-02 08:50:00,75.4,72.6,30.03,South,191,1.0,1.0,91,0.00,,,0.00,Wunderground v.1.15,2013-07-02 12:50:00,
2013-07-02 09:00:00,75.4,72.6,30.03,SSW,193,0.0,0.0,91,0.00,,,0.00,Wunderground v.1.15,2013-07-02 13:00:00,
2013-07-02 09:05:00,75.5,72.4,30.03,SSE,149,0.0,0.0,90,0.00,,,0.00,Wunderground v.1.15,2013-07-02 13:05:00,
2013-07-02 09:15:00,75.7,72.6,30.03,SSE,156,0.0,0.0,90,0.00,,,0.00,Wunderground v.1.15,2013-07-02 13:15:00,
2013-07-02 09:20:00,75.8,73.0,30.03,SSE,156,0.0,0.0,91,0.00,,,0.00,Wunderground v.1.15,2013-07-02 13:20:00,
2013-07-02 09:30:00,76.0,72.9,30.03,SSE,160,0.0,0.0,90,0.00,,,0.00,Wunderground v.1.15,2013-07-02 13:30:00,
2013-07-02 09:40:00,76.2,72.7,30.04,SSE,161,0.0,0.0,89,0.00,,,0.00,Wunderground v.1.15,2013-07-02 13:40:00,
2013-07-02 09:45:00,76.3,72.8,30.04,SSE,161,0.0,0.0,89,0.00,,,0.00,Wunderground v.1.15,2013-07-02 13:45:00,
2013-07-02 09:55:00,76.2,72.7,30.04,South,188,0.0,0.0,89,0.00,,,0.00,Wunderground v.1.15,2013-07-02 13:55:00,
2013-07-02 10:00:00,76.3,72.8,30.04,SSW,193,0.0,0.0,89,0.00,,,0.00,Wunderground v.1.15,2013-07-02 14:00:00,
2013-07-02 10:05:00,76.3,72.5,30.04,WSW,256,0.0,0.0,88,0.00,,,0.00,Wunderground v.1.15,2013-07-02 14:05:00,
2013-07-02 10:15:00,76.6,72.8,30.04,SE,144,0.0,1.0,88,0.00,,,0.00,Wunderground v.1.15,2013-07-02 14:15:00,
2013-07-02 10:20:00,76.8,73.0,30.04,SSE,166,1.0,1.0,88,0.00,,,0.00,Wunderground v.1.15,2013-07-02 14:20:00,
2013-07-02 10:30:00,77.4,73.2,30.05,SSE,168,0.0,0.0,87,0.00,,,0.00,Wunderground v.1.15,2013-07-02 14:30:00,
2013-07-02 10:35:00,77.5,72.6,30.05,SE,131,0.0,0.0,85,0.00,,,0.00,Wunderground v.1.15,2013-07-02 14:35:00,
2013-07-02 10:45:00,77.6,73.1,30.05,SSE,164,0.0,0.0,86,0.00,,,0.00,Wunderground v.1.15,2013-07-02 14:45:00,
2013-07-02 10:55:00,77.3,73.1,30.05,South,179,0.0,2.0,87,0.00,,,0.00,Wunderground v.1.15,2013-07-02 14:55:00,
2013-07-02 11:00:00,77.3,73.1,30.06,SSW,193,0.0,0.0,87,0.00,,,0.00,Wunderground v.1.15,2013-07-02 15:00:00,
2013-07-02 11:05:00,77.4,73.2,30.05,South,191,0.0,0.0,87,0.00,,,0.00,Wunderground v.1.15,2013-07-02 15:05:00,
2013-07-02 11:15:00,77.2,72.7,30.06,South,180,0.0,0.0,86,0.00,,,0.00,Wunderground v.1.15,2013-07-02 15:15:00,
2013-07-02 11:20:00,77.1,73.3,30.06,South,179,0.0,0.0,88,0.00,,,0.00,Wunderground v.1.15,2013-07-02 15:20:00,
2013-07-02 11:25:00,77.1,73.3,30.06,SE,144,0.0,1.0,88,0.00,,,0.00,Wunderground v.1.15,2013-07-02 15:25:00,
2013-07-02 11:35:00,77.3,73.1,30.06,South,188,1.0,2.0,87,0.00,,,0.00,Wunderground v.1.15,2013-07-02 15:35:00,
2013-07-02 11:45:00,77.6,73.1,30.06,South,181,1.0,1.0,86,0.00,,,0.00,Wunderground v.1.15,2013-07-02 15:45:00,
2013-07-02 11:50:00,77.8,73.3,30.06,WSW,239,1.0,1.0,86,0.00,,,0.00,Wunderground v.1.15,2013-07-02 15:50:00,
2013-07-02 12:00:00,77.7,73.5,30.06,South,190,0.0,0.0,87,0.00,,,0.00,Wunderground v.1.15,2013-07-02 16:00:00,
2013-07-02 12:05:00,77.3,73.8,30.06,South,191,0.0,0.0,89,0.00,,,0.00,Wunderground v.1.15,2013-07-02 16:05:00,
2013-07-02 12:14:00,76.9,74.1,30.06,SSW,204,0.0,1.0,91,0.00,,,0.00,Wunderground v.1.15,2013-07-02 16:14:00,
2013-07-02 12:20:00,76.7,73.9,30.06,SSW,204,0.0,0.0,91,0.00,,,0.00,Wunderground v.1.15,2013-07-02 16:20:00,
2013-07-02 12:25:00,76.5,74.0,30.06,SSW,205,0.0,0.0,92,0.00,,,0.00,Wunderground v.1.15,2013-07-02 16:25:00,
2013-07-02 12:35:00,76.2,74.0,30.07,SSW,196,0.0,1.0,93,0.00,,,0.01,Wunderground v.1.15,2013-07-02 16:35:00,
2013-07-02 12:40:00,76.0,73.8,30.07,SSW,196,0.0,0.0,93,0.00,,,0.01,Wunderground v.1.15,2013-07-02 16:40:00,
2013-07-02 12:50:00,75.8,73.9,30.07,SSE,164,0.0,0.0,94,0.00,,,0.01,Wunderground v.1.15,2013-07-02 16:50:00,
2013-07-02 13:00:00,75.6,74.1,30.07,SSE,167,0.0,0.0,95,0.00,,,0.01,Wunderground v.1.15,2013-07-02 17:00:00,
2013-07-02 13:05:00,75.4,73.9,30.07,South,178,0.0,0.0,95,0.00,,,0.01,Wunderground v.1.15,2013-07-02 17:05:00,
2013-07-02 13:15:00,75.2,73.7,30.07,South,178,0.0,0.0,95,0.00,,,0.01,Wunderground v.1.15,2013-07-02 17:15:00,
2013-07-02 13:25:00,75.1,73.9,30.07,South,178,0.0,0.0,96,0.00,,,0.02,Wunderground v.1.15,2013-07-02 17:25:00,
2013-07-02 13:35:00,74.9,73.7,30.07,SE,131,0.0,0.0,96,0.00,,,0.02,Wunderground v.1.15,2013-07-02 17:35:00,
2013-07-02 13:40:00,74.9,73.7,30.08,SE,131,0.0,0.0,96,0.00,,,0.02,Wunderground v.1.15,2013-07-02 17:40:00,
2013-07-02 13:50:00,74.9,73.7,30.07,SSW,194,0.0,2.0,96,0.00,,,0.02,Wunderground v.1.15,2013-07-02 17:50:00,
2013-07-02 13:55:00,75.0,73.8,30.07,South,191,0.0,2.0,96,0.00,,,0.02,Wunderground v.1.15,2013-07-02 17:55:00,
2013-07-02 14:05:00,75.0,73.8,30.07,South,176,0.0,0.0,96,0.00,,,0.02,Wunderground v.1.15,2013-07-02 18:05:00,
2013-07-02 14:15:00,74.9,73.7,30.07,South,176,0.0,0.0,96,0.00,,,0.03,Wunderground v.1.15,2013-07-02 18:15:00,
2013-07-02 14:25:00,75.2,74.3,30.07,South,176,0.0,0.0,97,0.00,,,0.03,Wunderground v.1.15,2013-07-02 18:25:00,
2013-07-02 14:35:00,75.2,74.0,30.07,South,177,0.0,0.0,96,0.00,,,0.03,Wunderground v.1.15,2013-07-02 18:35:00,
2013-07-02 14:40:00,75.4,74.5,30.07,South,176,0.0,0.0,97,0.00,,,0.03,Wunderground v.1.15,2013-07-02 18:40:00,
2013-07-02 14:50:00,75.5,74.3,30.07,South,177,0.0,0.0,96,0.00,,,0.03,Wunderground v.1.15,2013-07-02 18:50:00,
2013-07-02 14:55:00,75.4,73.9,30.07,South,188,0.0,1.0,95,0.00,,,0.03,Wunderground v.1.15,2013-07-02 18:55:00,
2013-07-02 15:05:00,75.3,73.8,30.07,South,189,0.0,0.0,95,0.00,,,0.03,Wunderground v.1.15,2013-07-02 19:05:00,
2013-07-02 15:15:00,75.3,73.8,30.07,South,182,0.0,1.0,95,0.00,,,0.03,Wunderground v.1.15,2013-07-02 19:15:00,
2013-07-02 15:25:00,75.2,73.7,30.07,South,187,0.0,0.0,95,0.00,,,0.03,Wunderground v.1.15,2013-07-02 19:25:00,
2013-07-02 15:35:00,75.1,73.3,30.07,South,187,0.0,0.0,94,0.00,,,0.03,Wunderground v.1.15,2013-07-02 19:35:00,
2013-07-02 15:40:00,74.9,73.1,30.07,South,187,0.0,0.0,94,0.00,,,0.03,Wunderground v.1.15,2013-07-02 19:40:00,
2013-07-02 15:50:00,74.8,73.3,30.07,South,187,0.0,0.0,95,0.00,,,0.03,Wunderground v.1.15,2013-07-02 19:50:00,
2013-07-02 16:00:00,74.6,73.1,30.07,SSE,168,0.0,0.0,95,0.00,,,0.04,Wunderground v.1.15,2013-07-02 20:00:00,
2013-07-02 16:05:00,74.8,73.6,30.06,South,179,0.0,0.0,96,0.00,,,0.04,Wunderground v.1.15,2013-07-02 20:05:00,
2013-07-02 16:14:00,75.1,73.6,30.07,South,183,0.0,0.0,95,0.00,,,0.04,Wunderground v.1.15,2013-07-02 20:14:00,
2013-07-02 16:20:00,75.3,73.8,30.07,SW,214,0.0,0.0,95,0.00,,,0.04,Wunderground v.1.15,2013-07-02 20:20:00,
2013-07-02 16:25:00,75.5,73.7,30.07,South,189,0.0,0.0,94,0.00,,,0.04,Wunderground v.1.15,2013-07-02 20:25:00,
2013-07-02 16:35:00,75.7,73.5,30.07,South,189,0.0,0.0,93,0.00,,,0.04,Wunderground v.1.15,2013-07-02 20:35:00,
2013-07-02 16:40:00,75.9,73.7,30.07,South,188,0.0,0.0,93,0.00,,,0.04,Wunderground v.1.15,2013-07-02 20:40:00,
2013-07-02 16:50:00,75.6,73.1,30.07,South,181,0.0,0.0,92,0.00,,,0.04,Wunderground v.1.15,2013-07-02 20:50:00,
2013-07-02 17:00:00,75.2,72.7,30.07,SSE,158,0.0,0.0,92,0.00,,,0.04,Wunderground v.1.15,2013-07-02 21:00:00,
2013-07-02 17:05:00,75.0,72.8,30.07,SSE,157,0.0,0.0,93,0.00,,,0.04,Wunderground v.1.15,2013-07-02 21:05:00,
2013-07-02 17:15:00,74.7,72.5,30.07,SSE,162,0.0,1.0,93,0.00,,,0.04,Wunderground v.1.15,2013-07-02 21:15:00,
2013-07-02 17:20:00,74.5,72.7,30.06,SSE,162,0.0,0.0,94,0.00,,,0.04,Wunderground v.1.15,2013-07-02 21:20:00,
2013-07-02 17:25:00,74.4,72.6,30.07,SSE,162,0.0,0.0,94,0.00,,,0.04,Wunderground v.1.15,2013-07-02 21:25:00,
2013-07-02 17:35:00,74.0,72.5,30.07,SSE,162,0.0,0.0,95,0.00,,,0.04,Wunderground v.1.15,2013-07-02 21:35:00,
2013-07-02 17:45:00,74.0,72.8,30.08,SSE,162,0.0,0.0,96,0.00,,,0.04,Wunderground v.1.15,2013-07-02 21:45:00,
2013-07-02 17:50:00,73.9,73.0,30.08,SSE,161,0.0,0.0,97,0.00,,,0.04,Wunderground v.1.15,2013-07-02 21:50:00,
2013-07-02 18:00:00,73.9,73.0,30.08,SSE,167,0.0,0.0,97,0.00,,,0.05,Wunderground v.1.15,2013-07-02 22:00:00,
2013-07-02 18:05:00,73.9,73.0,30.09,South,180,0.0,0.0,97,0.00,,,0.05,Wunderground v.1.15,2013-07-02 22:05:00,
2013-07-02 18:15:00,73.9,73.0,30.09,South,180,0.0,0.0,97,0.00,,,0.05,Wunderground v.1.15,2013-07-02 22:15:00,
2013-07-02 18:25:00,74.0,73.1,30.09,West,267,0.0,0.0,97,0.00,,,0.05,Wunderground v.1.15,2013-07-02 22:25:00,
2013-07-02 18:35:00,74.0,73.1,30.09,WSW,256,0.0,0.0,97,0.00,,,0.05,Wunderground v.1.15,2013-07-02 22:35:00,
2013-07-02 18:40:00,74.0,73.1,30.09,WSW,256,0.0,0.0,97,0.00,,,0.05,Wunderground v.1.15,2013-07-02 22:40:00,
2013-07-02 18:50:00,73.6,72.4,30.10,SSW,192,0.0,1.0,96,0.00,,,0.05,Wunderground v.1.15,2013-07-02 22:50:00,
2013-07-02 18:55:00,73.4,72.2,30.10,SE,131,0.0,1.0,96,0.00,,,0.05,Wunderground v.1.15,2013-07-02 22:55:00,
2013-07-02 19:05:00,73.0,71.8,30.10,SE,132,0.0,0.0,96,0.00,,,0.05,Wunderground v.1.15,2013-07-02 23:05:00,
2013-07-02 19:15:00,72.5,71.3,30.10,SE,146,0.0,0.0,96,0.00,,,0.05,Wunderground v.1.15,2013-07-02 23:15:00,
2013-07-02 19:25:00,72.1,70.9,30.10,SE,146,0.0,0.0,96,0.00,,,0.05,Wunderground v.1.15,2013-07-02 23:25:00,
2013-07-02 19:30:00,72.0,70.8,30.10,SE,146,0.0,0.0,96,0.00,,,0.05,Wunderground v.1.15,2013-07-02 23:30:00,
2013-07-02 19:40:00,71.8,70.9,30.11,SE,146,0.0,0.0,97,0.00,,,0.05,Wunderground v.1.15,2013-07-02 23:40:00,
2013-07-02 19:50:00,71.6,70.7,30.11,SE,146,0.0,0.0,97,0.00,,,0.05,Wunderground v.1.15,2013-07-02 23:50:00,
2013-07-02 19:55:00,71.5,70.6,30.11,SE,146,0.0,0.0,97,0.00,,,0.05,Wunderground v.1.15,2013-07-02 23:55:00,
2013-07-02 20:00:00,71.5,70.6,30.11,SE,146,0.0,0.0,97,0.00,,,0.05,Wunderground v.1.15,2013-07-03 00:00:00,
2013-07-02 20:05:00,71.4,70.5,30.11,SE,146,0.0,0.0,97,0.00,,,0.05,Wunderground v.1.15,2013-07-03 00:05:00,
2013-07-02 20:15:00,71.3,70.7,30.11,SE,146,0.0,0.0,98,0.00,,,0.05,Wunderground v.1.15,2013-07-03 00:15:00,
2013-07-02 20:19:00,71.3,70.7,30.11,SE,146,0.0,0.0,98,0.00,,,0.05,Wunderground v.1.15,2013-07-03 00:19:00,
2013-07-02 20:25:00,71.3,70.7,30.11,SE,146,0.0,0.0,98,0.00,,,0.05,Wunderground v.1.15,2013-07-03 00:25:00,
2013-07-02 20:30:00,71.3,70.7,30.11,SE,146,0.0,0.0,98,0.00,,,0.05,Wunderground v.1.15,2013-07-03 00:30:00,
2013-07-02 20:35:00,71.3,70.7,30.11,SE,146,0.0,0.0,98,0.00,,,0.06,Wunderground v.1.15,2013-07-03 00:35:00,
2013-07-02 20:40:00,71.3,70.7,30.12,SE,146,0.0,0.0,98,0.00,,,0.06,Wunderground v.1.15,2013-07-03 00:40:00,
2013-07-02 20:45:00,71.2,70.6,30.12,SE,146,0.0,0.0,98,0.00,,,0.06,Wunderground v.1.15,2013-07-03 00:45:00,
2013-07-02 20:55:00,71.1,70.5,30.11,SE,146,0.0,0.0,98,0.00,,,0.06,Wunderground v.1.15,2013-07-03 00:55:00,
2013-07-02 21:05:00,71.0,70.4,30.12,SE,146,0.0,0.0,98,0.00,,,0.06,Wunderground v.1.15,2013-07-03 01:05:00,
2013-07-02 21:15:00,71.0,70.4,30.12,SE,146,0.0,0.0,98,0.00,,,0.06,Wunderground v.1.15,2013-07-03 01:15:00,
2013-07-02 21:25:00,70.8,70.2,30.11,SE,146,0.0,0.0,98,0.00,,,0.06,Wunderground v.1.15,2013-07-03 01:25:00,
2013-07-02 21:30:00,70.8,70.2,30.12,SE,146,0.0,0.0,98,0.00,,,0.06,Wunderground v.1.15,2013-07-03 01:30:00,
2013-07-02 21:34:00,70.8,70.2,30.12,SE,146,0.0,0.0,98,0.00,,,0.06,Wunderground v.1.15,2013-07-03 01:34:00,
2013-07-02 21:40:00,70.8,70.2,30.12,SSE,147,0.0,0.0,98,0.00,,,0.06,Wunderground v.1.15,2013-07-03 01:40:00,
2013-07-02 21:50:00,70.7,70.1,30.12,SE,146,0.0,0.0,98,0.00,,,0.06,Wunderground v.1.15,2013-07-03 01:50:00,
2013-07-02 21:55:00,70.7,70.1,30.12,SE,146,0.0,0.0,98,0.00,,,0.06,Wunderground v.1.15,2013-07-03 01:55:00,
2013-07-02 22:00:00,70.6,70.0,30.12,SE,146,0.0,0.0,98,0.00,,,0.06,Wunderground v.1.15,2013-07-03 02:00:00,
2013-07-02 22:05:00,70.6,70.0,30.12,SE,146,0.0,0.0,98,0.00,,,0.06,Wunderground v.1.15,2013-07-03 02:05:00,
2013-07-02 22:15:00,70.6,70.3,30.13,SE,146,0.0,0.0,99,0.00,,,0.06,Wunderground v.1.15,2013-07-03 02:15:00,
2013-07-02 22:20:00,70.5,70.2,30.12,SE,146,0.0,0.0,99,0.00,,,0.06,Wunderground v.1.15,2013-07-03 02:20:00,
2013-07-02 22:30:00,70.5,70.2,30.13,SE,146,0.0,0.0,99,0.00,,,0.06,Wunderground v.1.15,2013-07-03 02:30:00,
2013-07-02 22:35:00,70.6,70.3,30.13,SE,146,0.0,0.0,99,0.00,,,0.06,Wunderground v.1.15,2013-07-03 02:35:00,
2013-07-02 22:44:00,70.6,70.3,30.13,SE,146,0.0,0.0,99,0.00,,,0.06,Wunderground v.1.15,2013-07-03 02:44:00,
2013-07-02 22:50:00,70.6,70.3,30.13,SSE,150,0.0,0.0,99,0.00,,,0.06,Wunderground v.1.15,2013-07-03 02:50:00,
2013-07-02 22:55:00,70.7,70.4,30.13,SSE,150,0.0,0.0,99,0.00,,,0.06,Wunderground v.1.15,2013-07-03 02:55:00,
2013-07-02 22:59:00,70.7,70.4,30.13,SSE,150,0.0,0.0,99,0.00,,,0.06,Wunderground v.1.15,2013-07-03 02:59:00,
2013-07-02 23:05:00,70.8,70.5,30.13,SSE,150,0.0,0.0,99,0.00,,,0.06,Wunderground v.1.15,2013-07-03 03:05:00,
2013-07-02 23:15:00,70.8,70.5,30.13,SSE,150,0.0,0.0,99,0.00,,,0.06,Wunderground v.1.15,2013-07-03 03:15:00,
2013-07-02 23:25:00,70.9,70.6,30.13,SSE,156,0.0,0.0,99,0.00,,,0.06,Wunderground v.1.15,2013-07-03 03:25:00,
2013-07-02 23:30:00,71.0,70.7,30.13,SSE,156,0.0,0.0,99,0.00,,,0.06,Wunderground v.1.15,2013-07-03 03:30:00,
2013-07-02 23:40:00,71.0,70.7,30.13,WSW,243,0.0,1.0,99,0.00,,,0.06,Wunderground v.1.15,2013-07-03 03:40:00,
2013-07-02 23:45:00,71.0,70.7,30.13,WSW,244,0.0,1.0,99,0.00,,,0.06,Wunderground v.1.15,2013-07-03 03:45:00,
2013-07-02 23:50:00,71.0,70.7,30.13,South,183,0.0,0.0,99,0.00,,,0.06,Wunderground v.1.15,2013-07-03 03:50:00,
2013-07-02 23:55:00,71.0,70.7,30.13,South,185,0.0,0.0,99,0.00,,,0.06,Wunderground v.1.15,2013-07-03 03:55:00,
2013-07-02 23:59:00,71.0,70.7,30.13,SSE,154,0.0,0.0,99,0.00,,,0.07,Wunderground v.1.15,2013-07-03 03:59:00,